Satellite: MET-3/5
Catalog number: 21655
Epoch time:      10314.79999827
Element set:    0962
Inclination:      082.5595 deg
RA of node:       205.0468 deg
Eccentricity:    0.0013581
Arg of perigee:   348.6432 deg
Mean anomaly:     011.4356 deg
Mean motion:   13.17027586 rev/day
Decay rate:        5.1e-07 rev/day^2
Epoch rev:           92497
Checksum:              328

Satellite: MET-2/21
Catalog number: 22782
Epoch time:      10315.66634469
Element set:     935
Inclination:      082.5441 deg
RA of node:       135.4574 deg
Eccentricity:    0.0022224
Arg of perigee:   352.9512 deg
Mean anomaly:     007.1326 deg
Mean motion:   13.83649507 rev/day
Decay rate:       -1.5e-07 rev/day^2
Epoch rev:           86847
Checksum:              305

Satellite: OKEAN-4
Catalog number: 23317
Epoch time:      10315.89859356
Element set:     391
Inclination:      082.5423 deg
RA of node:       215.9780 deg
Eccentricity:    0.0023627
Arg of perigee:   113.0043 deg
Mean anomaly:     247.3678 deg
Mean motion:   14.82890678 rev/day
Decay rate:       2.98e-06 rev/day^2
Epoch rev:           86834
Checksum:              332

Satellite: NOAA-14
Catalog number: 23455
Epoch time:      10314.70910372
Element set:    0260
Inclination:      098.8699 deg
RA of node:       034.3603 deg
Eccentricity:    0.0009336
Arg of perigee:   174.9873 deg
Mean anomaly:     185.1414 deg
Mean motion:   14.13799010 rev/day
Decay rate:       -3.7e-07 rev/day^2
Epoch rev:           81820
Checksum:              298

Satellite: NOAA-15
Catalog number: 25338
Epoch time:      10314.84904820
Element set:    0588
Inclination:      098.6344 deg
RA of node:       299.2588 deg
Eccentricity:    0.0010893
Arg of perigee:   013.3113 deg
Mean anomaly:     346.8344 deg
Mean motion:   14.24865272 rev/day
Decay rate:       1.19e-06 rev/day^2
Epoch rev:           64963
Checksum:              324

Satellite: RESURS
Catalog number: 25394
Epoch time:      10314.54774439
Element set:    0649
Inclination:      098.3010 deg
RA of node:       324.6349 deg
Eccentricity:    0.0001784
Arg of perigee:   120.7590 deg
Mean anomaly:     239.3759 deg
Mean motion:   14.24215115 rev/day
Decay rate:        2.3e-07 rev/day^2
Epoch rev:           64118
Checksum:              289

Satellite: FENGYUN1
Catalog number: 25730
Epoch time:      10315.44730401
Element set:     181
Inclination:      098.7995 deg
RA of node:       276.6655 deg
Eccentricity:    0.0019899
Arg of perigee:   209.4742 deg
Mean anomaly:     150.5356 deg
Mean motion:   14.08395143 rev/day
Decay rate:      1.258e-05 rev/day^2
Epoch rev:           59241
Checksum:              317

Satellite: OKEAN-0
Catalog number: 25860
Epoch time:      10314.53577532
Element set:    0148
Inclination:      097.8533 deg
RA of node:       282.4231 deg
Eccentricity:    0.0001238
Arg of perigee:   045.7158 deg
Mean anomaly:     314.4151 deg
Mean motion:   14.73679815 rev/day
Decay rate:        9.7e-07 rev/day^2
Epoch rev:           60845
Checksum:              301

Satellite: NOAA-16
Catalog number: 26536
Epoch time:      10316.05236565
Element set:      66
Inclination:      099.1628 deg
RA of node:       336.9572 deg
Eccentricity:    0.0009809
Arg of perigee:   283.2852 deg
Mean anomaly:     076.7247 deg
Mean motion:   14.12584619 rev/day
Decay rate:       1.78e-06 rev/day^2
Epoch rev:           52270
Checksum:              326

Satellite: NOAA-17
Catalog number: 27453
Epoch time:      10314.76019264
Element set:    0055
Inclination:      098.4122 deg
RA of node:       359.1613 deg
Eccentricity:    0.0012678
Arg of perigee:   070.8742 deg
Mean anomaly:     289.3808 deg
Mean motion:   14.24206944 rev/day
Decay rate:       -2.5e-07 rev/day^2
Epoch rev:           43556
Checksum:              305

Satellite: NOAA-18
Catalog number: 28654
Epoch time:      10314.76265235
Element set:    0545
Inclination:      098.9681 deg
RA of node:       260.7156 deg
Eccentricity:    0.0014439
Arg of perigee:   003.6246 deg
Mean anomaly:     356.5022 deg
Mean motion:   14.11407582 rev/day
Decay rate:       3.67e-06 rev/day^2
Epoch rev:           28211
Checksum:              299

Satellite: NOAA-19
Catalog number: 33591
Epoch time:      10314.85356473
Element set:    0741
Inclination:      098.8044 deg
RA of node:       253.9473 deg
Eccentricity:    0.0013371
Arg of perigee:   232.5476 deg
Mean anomaly:     127.4495 deg
Mean motion:   14.11099597 rev/day
Decay rate:      -1.35e-06 rev/day^2
Epoch rev:           09059
Checksum:              324

/EX
SB KEPS @ AMSAT  $ORB10316.M
Orbital Elements  10316.MISC

HR AMSAT ORBITAL ELEMENTS FOR MANNED AND MISCELLANEOUS SATELLITES
FROM WA5QGD FORT WORTH,TX November 12, 2010
BID: ORB10316.M
TO ALL RADIO AMATEURS BT

Satellite: HUBBLE
Catalog number: 20580
Epoch time:      10315.25682231
Element set:     674
Inclination:      028.4709 deg
RA of node:       359.6735 deg
Eccentricity:    0.0003076
Arg of perigee:   323.1425 deg
Mean anomaly:     036.8970 deg
Mean motion:   15.01086716 rev/day
Decay rate:       5.89e-06 rev/day^2
Epoch rev:           92687
Checksum:              306

Satellite: ISS
Catalog number: 25544
Epoch time:      10316.38599537
Element set:     262
Inclination:      051.6453 deg
RA of node:       192.2553 deg
Eccentricity:    0.0007844
Arg of perigee:   187.4989 deg
Mean anomaly:     171.9411 deg
Mean motion:   15.72692273 rev/day
Decay rate:     2.4931e-04 rev/day^2
Epoch rev:           68677
Checksum:              338

